Time,TemperatureF,DewpointF,PressureIn,WindDirection,WindDirectionDegrees,WindSpeedMPH,WindSpeedGustMPH,Humidity,HourlyPrecipIn,Conditions,Clouds,dailyrainin,SoftwareType,DateUTC
2013-03-21 00:03:00,45.0,-99.9,29.79,North,350,8.0,16.0,-999,-99.99,,,-99.99,,2013-03-21 04:03:00,
2013-03-21 00:13:00,45.0,-99.9,29.79,North,358,13.0,19.0,-999,-99.99,,,-99.99,,2013-03-21 04:13:00,
2013-03-21 00:23:00,43.0,-99.9,29.80,North,356,15.0,20.0,-999,-99.99,,,-99.99,,2013-03-21 04:23:00,
2013-03-21 00:33:00,43.0,-99.9,29.80,North,360,12.0,21.0,-999,-99.99,,,-99.99,,2013-03-21 04:33:00,
2013-03-21 00:43:00,42.0,-99.9,29.80,North,350,7.0,14.0,-999,-99.99,,,-99.99,,2013-03-21 04:43:00,
2013-03-21 00:53:00,42.0,-99.9,29.81,North,1,8.0,16.0,-999,-99.99,,,-99.99,,2013-03-21 04:53:00,
2013-03-21 01:03:00,42.0,-99.9,29.81,North,351,9.0,18.0,-999,-99.99,,,-99.99,,2013-03-21 05:03:00,
2013-03-21 01:13:00,42.0,-99.9,29.81,NNW,343,9.0,19.0,-999,-99.99,,,-99.99,,2013-03-21 05:13:00,
2013-03-21 01:22:00,42.0,-99.9,29.81,North,349,8.0,14.0,-999,-99.99,,,-99.99,,2013-03-21 05:22:00,
2013-03-21 01:33:00,42.0,-99.9,29.80,North,2,10.0,13.0,-999,-99.99,,,-99.99,,2013-03-21 05:33:00,
2013-03-21 01:44:00,42.0,-99.9,29.81,North,350,9.0,14.0,-999,-99.99,,,-99.99,,2013-03-21 05:44:00,
2013-03-21 01:52:00,41.0,-99.9,29.80,North,6,11.0,16.0,-999,-99.99,,,-99.99,,2013-03-21 05:52:00,
2013-03-21 02:03:00,41.0,-99.9,29.79,North,2,10.0,15.0,-999,-99.99,,,-99.99,,2013-03-21 06:03:00,
2013-03-21 02:12:00,41.0,-99.9,29.79,North,356,14.0,17.0,-999,-99.99,,,-99.99,,2013-03-21 06:12:00,
2013-03-21 02:23:00,41.0,-99.9,29.79,North,3,9.0,19.0,-999,-99.99,,,-99.99,,2013-03-21 06:23:00,
2013-03-21 02:32:00,41.0,-99.9,29.80,North,349,9.0,13.0,-999,-99.99,,,-99.99,,2013-03-21 06:32:00,
2013-03-21 02:42:00,40.0,-99.9,29.80,NNW,348,9.0,16.0,-999,-99.99,,,-99.99,,2013-03-21 06:42:00,
2013-03-21 02:52:00,40.0,-99.9,29.80,North,355,9.0,15.0,-999,-99.99,,,-99.99,,2013-03-21 06:52:00,
2013-03-21 03:02:00,40.0,-99.9,29.79,North,359,9.0,19.0,-999,-99.99,,,-99.99,,2013-03-21 07:02:00,
2013-03-21 03:13:00,40.0,-99.9,29.79,North,353,10.0,19.0,-999,-99.99,,,-99.99,,2013-03-21 07:13:00,
2013-03-21 03:22:00,40.0,-99.9,29.78,North,-999,-999.0,-999.0,-999,-99.99,,,-99.99,,2013-03-21 07:22:00,
2013-03-21 03:33:00,39.0,-99.9,29.79,NNW,342,13.0,17.0,-999,-99.99,,,-99.99,,2013-03-21 07:33:00,
2013-03-21 03:43:00,-999.0,-99.9,29.78,North,352,13.0,19.0,-999,-99.99,,,-99.99,,2013-03-21 07:43:00,
2013-03-21 03:53:00,39.0,-99.9,29.78,North,-999,-999.0,-999.0,-999,-99.99,,,-99.99,,2013-03-21 07:53:00,
2013-03-21 04:02:00,38.0,-99.9,29.78,North,356,12.0,26.0,-999,-99.99,,,-99.99,,2013-03-21 08:02:00,
2013-03-21 04:13:00,38.0,-99.9,29.78,North,355,13.0,23.0,-999,-99.99,,,-99.99,,2013-03-21 08:13:00,
2013-03-21 04:23:00,37.0,-99.9,29.78,North,-999,-999.0,-999.0,-999,-99.99,,,-99.99,,2013-03-21 08:23:00,
2013-03-21 04:33:00,37.0,-99.9,29.79,NNW,345,12.0,18.0,-999,-99.99,,,-99.99,,2013-03-21 08:33:00,
2013-03-21 04:43:00,-999.0,-99.9,29.79,North,353,8.0,15.0,-999,-99.99,,,-99.99,,2013-03-21 08:43:00,
2013-03-21 04:52:00,-999.0,-99.9,29.79,North,353,10.0,18.0,-999,-99.99,,,-99.99,,2013-03-21 08:52:00,
2013-03-21 05:02:00,35.0,-99.9,29.79,North,351,9.0,22.0,-999,-99.99,,,-99.99,,2013-03-21 09:02:00,
2013-03-21 05:11:00,35.0,-99.9,29.79,North,-999,-999.0,-999.0,-999,-99.99,,,-99.99,,2013-03-21 09:11:00,
2013-03-21 05:22:00,-999.0,-99.9,29.79,North,354,7.0,12.0,-999,-99.99,,,-99.99,,2013-03-21 09:22:00,
2013-03-21 05:33:00,35.0,-99.9,29.80,North,8,9.0,16.0,-999,-99.99,,,-99.99,,2013-03-21 09:33:00,
2013-03-21 05:43:00,35.0,-99.9,29.80,NNW,347,10.0,16.0,-999,-99.99,,,-99.99,,2013-03-21 09:43:00,
2013-03-21 05:53:00,35.0,-99.9,29.80,North,-999,-999.0,-999.0,-999,-99.99,,,-99.99,,2013-03-21 09:53:00,
2013-03-21 06:03:00,35.0,-99.9,29.80,North,356,7.0,17.0,-999,-99.99,,,-99.99,,2013-03-21 10:03:00,
2013-03-21 06:12:00,-999.0,-99.9,29.80,North,3,5.0,15.0,-999,-99.99,,,-99.99,,2013-03-21 10:12:00,
2013-03-21 06:23:00,35.0,-99.9,29.81,North,-999,-999.0,-999.0,-999,-99.99,,,-99.99,,2013-03-21 10:23:00,
2013-03-21 06:34:00,35.0,-99.9,29.81,North,10,6.0,11.0,-999,-99.99,,,-99.99,,2013-03-21 10:34:00,
2013-03-21 06:43:00,34.0,-99.9,29.81,NNW,348,6.0,16.0,-999,-99.99,,,-99.99,,2013-03-21 10:43:00,
2013-03-21 06:53:00,34.0,-99.9,29.81,North,-999,-999.0,-999.0,-999,-99.99,,,-99.99,,2013-03-21 10:53:00,
2013-03-21 07:03:00,35.0,-99.9,29.81,NNW,332,8.0,9.0,-999,-99.99,,,-99.99,,2013-03-21 11:03:00,
2013-03-21 07:13:00,35.0,-99.9,29.81,North,-999,-999.0,-999.0,-999,-99.99,,,-99.99,,2013-03-21 11:13:00,
2013-03-21 07:23:00,35.0,-99.9,29.81,North,-999,-999.0,-999.0,-999,-99.99,,,-99.99,,2013-03-21 11:23:00,
2013-03-21 07:33:00,35.0,-99.9,29.81,North,1,6.0,15.0,-999,-99.99,,,-99.99,,2013-03-21 11:33:00,
2013-03-21 07:43:00,-999.0,-99.9,29.81,North,359,11.0,16.0,-999,-99.99,,,-99.99,,2013-03-21 11:43:00,
2013-03-21 07:53:00,-999.0,-99.9,29.81,North,351,11.0,21.0,-999,-99.99,,,-99.99,,2013-03-21 11:53:00,
2013-03-21 08:03:00,35.0,-99.9,29.82,North,2,10.0,21.0,-999,-99.99,,,-99.99,,2013-03-21 12:03:00,
2013-03-21 08:13:00,35.0,-99.9,29.81,North,6,10.0,17.0,-999,-99.99,,,-99.99,,2013-03-21 12:13:00,
2013-03-21 08:22:00,-999.0,-99.9,29.82,North,356,9.0,17.0,-999,-99.99,,,-99.99,,2013-03-21 12:22:00,
2013-03-21 08:33:00,35.0,-99.9,29.82,North,356,11.0,20.0,-999,-99.99,,,-99.99,,2013-03-21 12:33:00,
2013-03-21 08:44:00,-999.0,-99.9,29.82,North,1,12.0,18.0,-999,-99.99,,,-99.99,,2013-03-21 12:44:00,
2013-03-21 08:53:00,-999.0,-99.9,29.82,North,351,10.0,22.0,-999,-99.99,,,-99.99,,2013-03-21 12:53:00,
2013-03-21 09:03:00,35.0,-99.9,29.82,NNW,331,14.0,25.0,-999,-99.99,,,-99.99,,2013-03-21 13:03:00,
2013-03-21 09:12:00,35.0,-99.9,29.81,North,-999,-999.0,-999.0,-999,-99.99,,,-99.99,,2013-03-21 13:12:00,
2013-03-21 09:22:00,-999.0,-99.9,29.81,NW,322,21.0,24.0,-999,-99.99,,,-99.99,,2013-03-21 13:22:00,
2013-03-21 09:33:00,34.0,-99.9,29.81,North,4,11.0,23.0,-999,-99.99,,,-99.99,,2013-03-21 13:33:00,
2013-03-21 09:43:00,35.0,-99.9,29.81,North,-999,-999.0,-999.0,-999,-99.99,,,-99.99,,2013-03-21 13:43:00,
2013-03-21 09:53:00,-999.0,-99.9,29.81,North,351,10.0,22.0,-999,-99.99,,,-99.99,,2013-03-21 13:53:00,
2013-03-21 10:02:00,35.0,-99.9,29.81,NW,320,21.0,22.0,-999,-99.99,,,-99.99,,2013-03-21 14:02:00,
2013-03-21 10:12:00,34.0,-99.9,29.81,North,-999,-999.0,-999.0,-999,-99.99,,,-99.99,,2013-03-21 14:12:00,
2013-03-21 10:22:00,-999.0,-99.9,29.81,NNW,340,13.0,18.0,-999,-99.99,,,-99.99,,2013-03-21 14:22:00,
2013-03-21 10:32:00,35.0,-99.9,29.80,NNW,327,16.0,24.0,-999,-99.99,,,-99.99,,2013-03-21 14:32:00,
2013-03-21 10:43:00,35.0,-99.9,29.80,NNW,333,14.0,16.0,-999,-99.99,,,-99.99,,2013-03-21 14:43:00,
2013-03-21 10:52:00,-999.0,-99.9,29.80,NNW,342,12.0,23.0,-999,-99.99,,,-99.99,,2013-03-21 14:52:00,
2013-03-21 11:04:00,35.0,-99.9,29.80,NNW,346,9.0,17.0,-999,-99.99,,,-99.99,,2013-03-21 15:04:00,
2013-03-21 11:13:00,-999.0,-99.9,29.80,NNW,337,13.0,23.0,-999,-99.99,,,-99.99,,2013-03-21 15:13:00,
2013-03-21 11:22:00,-999.0,-99.9,29.80,WNW,297,16.0,21.0,-999,-99.99,,,-99.99,,2013-03-21 15:22:00,
2013-03-21 11:33:00,35.0,-99.9,29.80,NW,322,14.0,22.0,-999,-99.99,,,-99.99,,2013-03-21 15:33:00,
2013-03-21 11:43:00,35.0,-99.9,29.80,NW,307,15.0,21.0,-999,-99.99,,,-99.99,,2013-03-21 15:43:00,
2013-03-21 11:53:00,35.0,-99.9,29.80,North,-999,-999.0,-999.0,-999,-99.99,,,-99.99,,2013-03-21 15:53:00,
2013-03-21 12:03:00,35.0,-99.9,29.80,North,356,15.0,20.0,-999,-99.99,,,-99.99,,2013-03-21 16:03:00,
2013-03-21 12:13:00,-999.0,-99.9,29.80,NW,310,18.0,21.0,-999,-99.99,,,-99.99,,2013-03-21 16:13:00,
2013-03-21 12:23:00,-999.0,-99.9,29.80,NW,321,17.0,22.0,-999,-99.99,,,-99.99,,2013-03-21 16:23:00,
2013-03-21 12:33:00,35.0,-99.9,29.80,NNW,333,11.0,21.0,-999,-99.99,,,-99.99,,2013-03-21 16:33:00,
2013-03-21 12:43:00,-999.0,-99.9,29.79,NW,304,20.0,26.0,-999,-99.99,,,-99.99,,2013-03-21 16:43:00,
2013-03-21 12:53:00,-999.0,-99.9,29.80,NW,309,18.0,23.0,-999,-99.99,,,-99.99,,2013-03-21 16:53:00,
2013-03-21 13:03:00,35.0,-99.9,29.79,WNW,294,16.0,20.0,-999,-99.99,,,-99.99,,2013-03-21 17:03:00,
2013-03-21 13:12:00,36.0,-99.9,29.79,NW,320,14.0,23.0,-999,-99.99,,,-99.99,,2013-03-21 17:12:00,
2013-03-21 13:23:00,-999.0,-99.9,29.79,NNW,331,11.0,18.0,-999,-99.99,,,-99.99,,2013-03-21 17:23:00,
2013-03-21 13:33:00,36.0,-99.9,29.78,NW,310,21.0,23.0,-999,-99.99,,,-99.99,,2013-03-21 17:33:00,
2013-03-21 13:43:00,-999.0,-99.9,29.78,NW,307,16.0,24.0,-999,-99.99,,,-99.99,,2013-03-21 17:43:00,
2013-03-21 13:53:00,36.0,-99.9,29.78,North,-999,-999.0,-999.0,-999,-99.99,,,-99.99,,2013-03-21 17:53:00,
2013-03-21 14:02:00,35.0,-99.9,29.78,NW,314,19.0,30.0,-999,-99.99,,,-99.99,,2013-03-21 18:02:00,
2013-03-21 14:12:00,35.0,-99.9,29.78,NW,320,21.0,28.0,-999,-99.99,,,-99.99,,2013-03-21 18:12:00,
2013-03-21 14:23:00,36.0,-99.9,29.78,North,-999,-999.0,-999.0,-999,-99.99,,,-99.99,,2013-03-21 18:23:00,
2013-03-21 14:32:00,36.0,-99.9,29.78,NW,308,12.0,24.0,-999,-99.99,,,-99.99,,2013-03-21 18:32:00,
2013-03-21 14:43:00,36.0,-99.9,29.78,North,-999,-999.0,-999.0,-999,-99.99,,,-99.99,,2013-03-21 18:43:00,
2013-03-21 14:52:00,37.0,-99.9,29.77,North,-999,-999.0,-999.0,-999,-99.99,,,-99.99,,2013-03-21 18:52:00,
2013-03-21 15:02:00,35.0,-99.9,29.77,WNW,293,14.0,18.0,-999,-99.99,,,-99.99,,2013-03-21 19:02:00,
2013-03-21 15:12:00,-999.0,-99.9,29.77,NW,309,15.0,24.0,-999,-99.99,,,-99.99,,2013-03-21 19:12:00,
2013-03-21 15:23:00,36.0,-99.9,29.77,North,-999,-999.0,-999.0,-999,-99.99,,,-99.99,,2013-03-21 19:23:00,
2013-03-21 15:32:00,36.0,-99.9,29.76,NNW,336,13.0,21.0,-999,-99.99,,,-99.99,,2013-03-21 19:32:00,
2013-03-21 15:43:00,36.0,-99.9,29.77,North,349,10.0,17.0,-999,-99.99,,,-99.99,,2013-03-21 19:43:00,
2013-03-21 15:53:00,36.0,-99.9,29.77,North,-999,-999.0,-999.0,-999,-99.99,,,-99.99,,2013-03-21 19:53:00,
2013-03-21 16:02:00,36.0,-99.9,29.78,NNW,327,17.0,25.0,-999,-99.99,,,-99.99,,2013-03-21 20:02:00,
2013-03-21 16:13:00,35.0,-99.9,29.77,North,-999,-999.0,-999.0,-999,-99.99,,,-99.99,,2013-03-21 20:13:00,
2013-03-21 16:23:00,35.0,-99.9,29.78,North,-999,-999.0,-999.0,-999,-99.99,,,-99.99,,2013-03-21 20:23:00,
2013-03-21 16:33:00,36.0,-99.9,29.78,NW,323,14.0,20.0,-999,-99.99,,,-99.99,,2013-03-21 20:33:00,
2013-03-21 16:43:00,35.0,-99.9,29.78,NW,308,17.0,20.0,-999,-99.99,,,-99.99,,2013-03-21 20:43:00,
2013-03-21 16:53:00,-999.0,-99.9,29.78,NW,323,20.0,23.0,-999,-99.99,,,-99.99,,2013-03-21 20:53:00,
2013-03-21 17:03:00,36.0,-99.9,29.78,NW,317,18.0,25.0,-999,-99.99,,,-99.99,,2013-03-21 21:03:00,
2013-03-21 17:12:00,35.0,-99.9,29.78,North,-999,-999.0,-999.0,-999,-99.99,,,-99.99,,2013-03-21 21:12:00,
2013-03-21 17:23:00,35.0,-99.9,29.79,North,-999,-999.0,-999.0,-999,-99.99,,,-99.99,,2013-03-21 21:23:00,
2013-03-21 17:33:00,35.0,-99.9,29.79,NW,305,17.0,23.0,-999,-99.99,,,-99.99,,2013-03-21 21:33:00,
2013-03-21 17:43:00,-999.0,-99.9,29.79,NW,309,15.0,22.0,-999,-99.99,,,-99.99,,2013-03-21 21:43:00,
2013-03-21 17:53:00,35.0,-99.9,29.79,North,-999,-999.0,-999.0,-999,-99.99,,,-99.99,,2013-03-21 21:53:00,
2013-03-21 18:03:00,35.0,-99.9,29.80,NW,316,17.0,27.0,-999,-99.99,,,-99.99,,2013-03-21 22:03:00,
2013-03-21 18:13:00,35.0,-99.9,29.80,WNW,297,15.0,27.0,-999,-99.99,,,-99.99,,2013-03-21 22:13:00,
2013-03-21 18:23:00,-999.0,-99.9,29.80,WNW,299,19.0,24.0,-999,-99.99,,,-99.99,,2013-03-21 22:23:00,
2013-03-21 18:34:00,35.0,-99.9,29.81,NW,304,18.0,25.0,-999,-99.99,,,-99.99,,2013-03-21 22:34:00,
2013-03-21 18:43:00,-999.0,-99.9,29.81,NW,318,20.0,28.0,-999,-99.99,,,-99.99,,2013-03-21 22:43:00,
2013-03-21 18:53:00,35.0,-99.9,29.82,North,-999,-999.0,-999.0,-999,-99.99,,,-99.99,,2013-03-21 22:53:00,
2013-03-21 19:03:00,35.0,-99.9,29.82,NW,310,21.0,27.0,-999,-99.99,,,-99.99,,2013-03-21 23:03:00,
2013-03-21 19:12:00,35.0,-99.9,29.83,NW,312,16.0,23.0,-999,-99.99,,,-99.99,,2013-03-21 23:12:00,
2013-03-21 19:22:00,-999.0,-99.9,29.83,NW,314,18.0,25.0,-999,-99.99,,,-99.99,,2013-03-21 23:22:00,
2013-03-21 19:33:00,34.0,-99.9,29.84,NW,307,15.0,21.0,-999,-99.99,,,-99.99,,2013-03-21 23:33:00,
2013-03-21 19:43:00,-999.0,-99.9,29.84,NNW,334,13.0,20.0,-999,-99.99,,,-99.99,,2013-03-21 23:43:00,
2013-03-21 19:53:00,35.0,-99.9,29.84,North,-999,-999.0,-999.0,-999,-99.99,,,-99.99,,2013-03-21 23:53:00,
2013-03-21 20:03:00,35.0,-99.9,29.85,NNW,327,17.0,21.0,-999,-99.99,,,-99.99,,2013-03-22 00:03:00,
2013-03-21 20:13:00,-999.0,-99.9,29.85,NW,314,17.0,21.0,-999,-99.99,,,-99.99,,2013-03-22 00:13:00,
2013-03-21 20:22:00,34.0,-99.9,29.85,North,-999,-999.0,-999.0,-999,-99.99,,,-99.99,,2013-03-22 00:22:00,
2013-03-21 20:32:00,34.0,-99.9,29.85,NW,313,15.0,24.0,-999,-99.99,,,-99.99,,2013-03-22 00:32:00,
2013-03-21 20:42:00,34.0,-99.9,29.86,North,-999,-999.0,-999.0,-999,-99.99,,,-99.99,,2013-03-22 00:42:00,
2013-03-21 20:52:00,-999.0,-99.9,29.86,NW,323,11.0,17.0,-999,-99.99,,,-99.99,,2013-03-22 00:52:00,
2013-03-21 21:03:00,34.0,-99.9,29.87,NW,326,13.0,19.0,-999,-99.99,,,-99.99,,2013-03-22 01:03:00,
2013-03-21 21:12:00,-999.0,-99.9,29.87,NW,323,13.0,21.0,-999,-99.99,,,-99.99,,2013-03-22 01:12:00,
2013-03-21 21:22:00,33.0,-99.9,29.88,North,-999,-999.0,-999.0,-999,-99.99,,,-99.99,,2013-03-22 01:22:00,
2013-03-21 21:33:00,33.0,-99.9,29.88,NNW,327,14.0,19.0,-999,-99.99,,,-99.99,,2013-03-22 01:33:00,
2013-03-21 21:43:00,33.0,-99.9,29.89,NW,326,13.0,20.0,-999,-99.99,,,-99.99,,2013-03-22 01:43:00,
2013-03-21 21:53:00,-999.0,-99.9,29.89,NW,318,12.0,22.0,-999,-99.99,,,-99.99,,2013-03-22 01:53:00,
2013-03-21 22:03:00,33.0,-99.9,29.89,NW,315,14.0,21.0,-999,-99.99,,,-99.99,,2013-03-22 02:03:00,
2013-03-21 22:12:00,-999.0,-99.9,29.90,NW,321,12.0,16.0,-999,-99.99,,,-99.99,,2013-03-22 02:12:00,
2013-03-21 22:22:00,-999.0,-99.9,29.90,NW,306,12.0,18.0,-999,-99.99,,,-99.99,,2013-03-22 02:22:00,
2013-03-21 22:32:00,32.0,-99.9,29.90,NW,310,13.0,17.0,-999,-99.99,,,-99.99,,2013-03-22 02:32:00,
2013-03-21 22:43:00,32.0,-99.9,29.90,NW,309,10.0,16.0,-999,-99.99,,,-99.99,,2013-03-22 02:43:00,
2013-03-21 22:53:00,-999.0,-99.9,29.90,NW,314,13.0,16.0,-999,-99.99,,,-99.99,,2013-03-22 02:53:00,
2013-03-21 23:02:00,32.0,-99.9,29.90,WNW,303,9.0,13.0,-999,-99.99,,,-99.99,,2013-03-22 03:02:00,
2013-03-21 23:12:00,-999.0,-99.9,29.90,NW,316,11.0,15.0,-999,-99.99,,,-99.99,,2013-03-22 03:12:00,
2013-03-21 23:22:00,-999.0,-99.9,29.90,WNW,295,7.0,14.0,-999,-99.99,,,-99.99,,2013-03-22 03:22:00,
2013-03-21 23:33:00,32.0,-99.9,29.91,WNW,293,10.0,11.0,-999,-99.99,,,-99.99,,2013-03-22 03:33:00,
2013-03-21 23:43:00,32.0,-99.9,29.91,North,-999,-999.0,-999.0,-999,-99.99,,,-99.99,,2013-03-22 03:43:00,
2013-03-21 23:53:00,32.0,-99.9,29.91,North,-999,-999.0,-999.0,-999,-99.99,,,-99.99,,2013-03-22 03:53:00,